CG78 TNCC-TNCC

Flight info

Callsign CG78
Flight time 1h 9m
Altitude 2500
Route OLITO DCT DUKSO DCT LOGLA DCT D162G DCT D300M DCT PJG48 DCT AMAVA DCT KAPOB DCT MIDVU DCT IRLEP DCT TABEB
Aircraft F27/M-SDFHY/C

Departure

Time 2026-05-05 22:00
Airport Hato International Airport (TNCC)

Arrival

Time 2026-05-05 23:10
Airport Hato International Airport (TNCC)
Time Latitude Longitude Altitude Speed Heading
2026-05-05 21:47 12.18611 -68.96275 41 ft 0 kts 107°
2026-05-05 21:48 12.18611 -68.96276 41 ft 0 kts 107°
2026-05-05 21:48 12.18615 -68.96288 41 ft 2 kts 118°
2026-05-05 21:48 12.18622 -68.96300 40 ft 1 kts 135°
2026-05-05 21:48 12.18631 -68.96303 39 ft 0 kts 170°
2026-05-05 21:55 12.18630 -68.96303 41 ft 1 kts 181°
2026-05-05 21:55 12.18629 -68.96305 41 ft 3 kts 281°
2026-05-05 21:55 12.18639 -68.96339 39 ft 4 kts 311°
2026-05-05 21:56 12.18658 -68.96355 41 ft 4 kts 321°
2026-05-05 21:56 12.18677 -68.96378 41 ft 4 kts 279°
2026-05-05 21:56 12.18687 -68.96399 38 ft 2 kts 315°
2026-05-05 21:56 12.18695 -68.96405 40 ft 1 kts 333°
2026-05-05 21:57 12.18715 -68.96409 41 ft 11 kts 356°
2026-05-05 21:57 12.18788 -68.96413 40 ft 9 kts 325°
2026-05-05 21:57 12.18813 -68.96464 37 ft 7 kts 281°
2026-05-05 21:57 12.18825 -68.96523 40 ft 10 kts 283°
2026-05-05 21:58 12.18841 -68.96591 39 ft 10 kts 282°
2026-05-05 21:58 12.18854 -68.96665 39 ft 12 kts 283°
2026-05-05 21:58 12.18876 -68.96765 39 ft 15 kts 283°
2026-05-05 21:58 12.18937 -68.96810 38 ft 10 kts
2026-05-05 21:59 12.18996 -68.96801 38 ft 7 kts 10°
2026-05-05 21:59 12.19046 -68.96777 38 ft 7 kts 51°
2026-05-05 21:59 12.19049 -68.96734 39 ft 10 kts 104°
2026-05-05 21:59 12.19005 -68.96519 41 ft 54 kts 103°
2026-05-05 22:00 12.18908 -68.96029 144 ft 78 kts 102°
2026-05-05 22:00 12.18775 -68.95470 469 ft 85 kts 107°
2026-05-05 22:00 12.18649 -68.94864 679 ft 95 kts 97°
2026-05-05 22:00 12.18683 -68.94059 639 ft 128 kts 75°
2026-05-05 22:01 12.19151 -68.93215 684 ft 145 kts 66°
2026-05-05 22:01 12.19311 -68.92197 702 ft 153 kts 102°
2026-05-05 22:01 12.18692 -68.91261 734 ft 166 kts 128°
2026-05-05 22:01 12.17985 -68.90306 732 ft 169 kts 106°
2026-05-05 22:02 12.17933 -68.89070 588 ft 179 kts 89°
2026-05-05 22:02 12.17787 -68.87802 550 ft 182 kts 103°
2026-05-05 22:02 12.17631 -68.86511 574 ft 185 kts 84°
2026-05-05 22:02 12.17636 -68.85234 652 ft 181 kts 108°
2026-05-05 22:03 12.16796 -68.84264 692 ft 184 kts 131°
2026-05-05 22:03 12.16048 -68.83231 739 ft 184 kts 121°
2026-05-05 22:03 12.15384 -68.82088 664 ft 191 kts 119°
2026-05-05 22:03 12.14415 -68.81154 609 ft 197 kts 144°
2026-05-05 22:04 12.13115 -68.80652 572 ft 197 kts 149°
2026-05-05 22:04 12.11831 -68.80140 565 ft 196 kts 141°
2026-05-05 22:04 12.10750 -68.79305 681 ft 190 kts 143°
2026-05-05 22:04 12.09604 -68.78665 731 ft 189 kts 137°
2026-05-05 22:05 12.08680 -68.77727 760 ft 188 kts 129°
2026-05-05 22:05 12.07669 -68.76866 784 ft 191 kts 138°
2026-05-05 22:05 12.06591 -68.76092 841 ft 187 kts 130°
2026-05-05 22:05 12.05843 -68.75005 728 ft 190 kts 121°
2026-05-05 22:06 12.04975 -68.73959 719 ft 191 kts 130°
2026-05-05 22:06 12.03768 -68.73976 1053 ft 203 kts 229°
2026-05-05 22:06 12.03990 -68.75404 631 ft 226 kts 290°
2026-05-05 22:06 12.04301 -68.76936 699 ft 219 kts 270°
2026-05-05 22:07 12.03863 -68.78431 556 ft 221 kts 231°
2026-05-05 22:07 12.03337 -68.79821 630 ft 211 kts 282°
2026-05-05 22:07 12.04035 -68.81152 468 ft 217 kts 296°
2026-05-05 22:07 12.04569 -68.82625 381 ft 219 kts 296°
2026-05-05 22:08 12.05300 -68.83921 479 ft 206 kts 312°
2026-05-05 22:08 12.06127 -68.85085 451 ft 209 kts 283°
2026-05-05 22:08 12.06519 -68.86482 448 ft 196 kts 306°
2026-05-05 22:08 12.07200 -68.87701 290 ft 207 kts 306°
2026-05-05 22:09 12.07941 -68.88975 283 ft 211 kts 294°
2026-05-05 22:09 12.08728 -68.90253 270 ft 209 kts 312°
2026-05-05 22:09 12.09553 -68.91469 203 ft 215 kts 292°
2026-05-05 22:09 12.09646 -68.92907 424 ft 195 kts 248°
2026-05-05 22:10 12.08836 -68.93942 505 ft 186 kts 210°
2026-05-05 22:10 12.08099 -68.94345 663 ft 172 kts 191°
2026-05-05 22:10 12.07312 -68.95268 326 ft 216 kts 260°
2026-05-05 22:10 12.07995 -68.96564 263 ft 214 kts 338°
2026-05-05 22:11 12.09250 -68.96215 321 ft 181 kts 60°
2026-05-05 22:11 12.09259 -68.95025 497 ft 164 kts 90°
2026-05-05 22:11 12.09928 -68.94000 278 ft 190 kts 45°
2026-05-05 22:11 12.11073 -68.93317 296 ft 192 kts 14°
2026-05-05 22:12 12.12035 -68.94086 431 ft 201 kts 271°
2026-05-05 22:12 12.11692 -68.95459 621 ft 195 kts 251°
2026-05-05 22:12 12.10822 -68.96334 624 ft 178 kts 179°
2026-05-05 22:12 12.09832 -68.95821 526 ft 163 kts 118°
2026-05-05 22:13 12.09409 -68.94779 540 ft 158 kts 89°
2026-05-05 22:13 12.10077 -68.93876 300 ft 182 kts 37°
2026-05-05 22:13 12.11217 -68.93336 458 ft 187 kts 359°
2026-05-05 22:13 12.11979 -68.94359 371 ft 212 kts 267°
2026-05-05 22:14 12.11898 -68.95775 722 ft 203 kts 265°
2026-05-05 22:14 12.11107 -68.96771 825 ft 180 kts 183°
2026-05-05 22:14 12.10019 -68.96411 798 ft 171 kts 134°
2026-05-05 22:14 12.09459 -68.95348 588 ft 178 kts 89°
2026-05-05 22:15 12.09865 -68.94147 382 ft 191 kts 51°
2026-05-05 22:15 12.10974 -68.93288 193 ft 197 kts 41°
2026-05-05 22:15 12.11396 -68.92201 563 ft 166 kts 111°
2026-05-05 22:15 12.10428 -68.91683 704 ft 176 kts 175°
2026-05-05 22:16 12.09548 -68.92589 580 ft 205 kts 277°
2026-05-05 22:16 12.10312 -68.93742 307 ft 208 kts 306°
2026-05-05 22:16 12.10750 -68.95179 251 ft 212 kts 286°
2026-05-05 22:16 12.11494 -68.96438 432 ft 204 kts 306°
2026-05-05 22:17 12.12454 -68.97499 378 ft 205 kts 318°
2026-05-05 22:17 12.13214 -68.98752 259 ft 211 kts 293°
2026-05-05 22:17 12.14034 -68.99948 180 ft 202 kts 337°
2026-05-05 22:17 12.15312 -69.00343 215 ft 193 kts 338°
2026-05-05 22:18 12.16429 -69.01045 313 ft 192 kts 319°
2026-05-05 22:18 12.17514 -69.01840 320 ft 193 kts 334°
2026-05-05 22:18 12.18702 -69.02445 382 ft 196 kts 325°
2026-05-05 22:18 12.19363 -69.03646 375 ft 204 kts 266°
2026-05-05 22:19 12.18911 -69.05024 429 ft 201 kts 245°
2026-05-05 22:19 12.18681 -69.06464 301 ft 213 kts 281°
2026-05-05 22:19 12.19408 -69.07765 186 ft 210 kts 318°
2026-05-05 22:19 12.20487 -69.08682 292 ft 193 kts 343°
2026-05-05 22:20 12.21742 -69.08976 342 ft 193 kts 342°
2026-05-05 22:20 12.22936 -69.09686 403 ft 194 kts 316°
2026-05-05 22:20 12.23426 -69.10974 475 ft 200 kts 281°
2026-05-05 22:20 12.23616 -69.12400 463 ft 206 kts 278°
2026-05-05 22:21 12.23788 -69.13876 441 ft 206 kts 280°
2026-05-05 22:21 12.23954 -69.15348 429 ft 209 kts 277°
2026-05-05 22:21 12.24146 -69.16825 472 ft 212 kts 279°
2026-05-05 22:21 12.24343 -69.18329 444 ft 215 kts 277°
2026-05-05 22:22 12.24531 -69.19856 411 ft 216 kts 271°
2026-05-05 22:22 12.24575 -69.21372 443 ft 214 kts 274°
2026-05-05 22:22 12.24833 -69.22873 436 ft 216 kts 283°
2026-05-05 22:22 12.25108 -69.24395 447 ft 217 kts 282°
2026-05-05 22:23 12.25372 -69.25892 393 ft 214 kts 282°
2026-05-05 22:23 12.25638 -69.27368 501 ft 204 kts 282°
2026-05-05 22:23 12.25882 -69.28777 484 ft 203 kts 282°
2026-05-05 22:23 12.26132 -69.30196 480 ft 203 kts 283°
2026-05-05 22:24 12.26360 -69.31616 445 ft 202 kts 282°
2026-05-05 22:24 12.26576 -69.33044 472 ft 201 kts 282°
2026-05-05 22:24 12.26782 -69.34458 443 ft 203 kts 280°
2026-05-05 22:24 12.27036 -69.35880 432 ft 201 kts 284°
2026-05-05 22:25 12.27272 -69.37295 462 ft 202 kts 281°
2026-05-05 22:25 12.27502 -69.38703 475 ft 202 kts 283°
2026-05-05 22:25 12.27720 -69.40120 475 ft 204 kts 280°
2026-05-05 22:25 12.27962 -69.41557 458 ft 205 kts 284°
2026-05-05 22:26 12.28269 -69.42982 455 ft 205 kts 285°
2026-05-05 22:26 12.28568 -69.44425 462 ft 208 kts 284°
2026-05-05 22:26 12.28887 -69.45868 471 ft 208 kts 286°
2026-05-05 22:26 12.29188 -69.47294 451 ft 206 kts 284°
2026-05-05 22:27 12.29490 -69.48725 447 ft 205 kts 285°
2026-05-05 22:27 12.29798 -69.50144 447 ft 203 kts 285°
2026-05-05 22:27 12.30092 -69.51542 450 ft 204 kts 284°
2026-05-05 22:27 12.30393 -69.52984 489 ft 209 kts 285°
2026-05-05 22:28 12.30720 -69.54464 457 ft 214 kts 285°
2026-05-05 22:28 12.31052 -69.55930 464 ft 216 kts 284°
2026-05-05 22:28 12.31391 -69.57426 443 ft 213 kts 286°
2026-05-05 22:28 12.31700 -69.58905 460 ft 212 kts 285°
2026-05-05 22:29 12.31976 -69.60369 455 ft 212 kts 285°
2026-05-05 22:29 12.32256 -69.61859 446 ft 213 kts 283°
2026-05-05 22:29 12.32571 -69.63357 452 ft 215 kts 285°
2026-05-05 22:29 12.32901 -69.64832 448 ft 214 kts 286°
2026-05-05 22:30 12.33208 -69.66316 442 ft 213 kts 285°
2026-05-05 22:30 12.33488 -69.67814 444 ft 214 kts 285°
2026-05-05 22:30 12.33761 -69.69311 460 ft 214 kts 285°
2026-05-05 22:30 12.34031 -69.70800 458 ft 215 kts 283°
2026-05-05 22:31 12.34334 -69.72310 461 ft 215 kts 284°
2026-05-05 22:31 12.34677 -69.73806 462 ft 215 kts 286°
2026-05-05 22:31 12.35065 -69.75265 452 ft 214 kts 289°
2026-05-05 22:31 12.35471 -69.76714 455 ft 213 kts 290°
2026-05-05 22:32 12.35848 -69.78171 459 ft 213 kts 289°
2026-05-05 22:32 12.36208 -69.79658 440 ft 215 kts 289°
2026-05-05 22:32 12.36625 -69.81123 464 ft 214 kts 295°
2026-05-05 22:32 12.37135 -69.82547 480 ft 215 kts 297°
2026-05-05 22:33 12.37850 -69.83859 518 ft 208 kts 312°
2026-05-05 22:33 12.38726 -69.85031 599 ft 205 kts 317°
2026-05-05 22:33 12.39617 -69.86155 634 ft 207 kts 314°
2026-05-05 22:33 12.40330 -69.87464 627 ft 216 kts 298°
2026-05-05 22:34 12.40871 -69.88902 652 ft 215 kts 296°
2026-05-05 22:34 12.41431 -69.90312 675 ft 214 kts 296°
2026-05-05 22:34 12.42017 -69.91699 713 ft 211 kts 298°
2026-05-05 22:34 12.42638 -69.93051 718 ft 211 kts 302°
2026-05-05 22:35 12.43515 -69.94263 597 ft 212 kts 323°
2026-05-05 22:35 12.44584 -69.95281 619 ft 210 kts 324°
2026-05-05 22:35 12.45623 -69.96358 569 ft 213 kts 320°
2026-05-05 22:35 12.46636 -69.97466 493 ft 215 kts 319°
2026-05-05 22:36 12.47441 -69.98778 409 ft 226 kts 294°
2026-05-05 22:36 12.48009 -70.00277 296 ft 227 kts 301°
2026-05-05 22:36 12.48915 -70.01557 299 ft 218 kts 318°
2026-05-05 22:36 12.49947 -70.02704 241 ft 218 kts 317°
2026-05-05 22:37 12.51090 -70.03664 233 ft 210 kts 330°
2026-05-05 22:37 12.52188 -70.04669 252 ft 213 kts 317°
2026-05-05 22:37 12.53142 -70.05830 276 ft 208 kts 322°
2026-05-05 22:37 12.54324 -70.06513 350 ft 179 kts 14°
2026-05-05 22:38 12.55325 -70.05868 325 ft 176 kts 34°
2026-05-05 22:38 12.56444 -70.05326 222 ft 176 kts 47°
2026-05-05 22:38 12.57524 -70.04746 218 ft 185 kts 17°
2026-05-05 22:38 12.58836 -70.04833 179 ft 196 kts 349°
2026-05-05 22:39 12.60123 -70.05285 168 ft 194 kts 351°
2026-05-05 22:39 12.61334 -70.05828 239 ft 198 kts 324°
2026-05-05 22:39 12.62509 -70.05972 132 ft 175 kts 37°
2026-05-05 22:39 12.62726 -70.04962 121 ft 173 kts 117°
2026-05-05 22:40 12.61801 -70.04166 274 ft 175 kts 144°
2026-05-05 22:40 12.60868 -70.03404 247 ft 168 kts 117°
2026-05-05 22:40 12.60289 -70.02386 329 ft 168 kts 122°
2026-05-05 22:40 12.59281 -70.01733 408 ft 175 kts 146°
2026-05-05 22:41 12.58297 -70.01003 264 ft 180 kts 129°
2026-05-05 22:41 12.57713 -70.00393 361 ft 176 kts 129°
2026-05-05 22:41 12.56868 -69.99488 431 ft 176 kts 128°
2026-05-05 22:41 12.56039 -69.98552 440 ft 178 kts 126°
2026-05-05 22:42 12.55041 -69.97193 492 ft 176 kts 112°
2026-05-05 22:42 12.54733 -69.96432 517 ft 176 kts 110°
2026-05-05 22:42 12.54207 -69.95273 467 ft 176 kts 105°
2026-05-05 22:42 12.53559 -69.94211 373 ft 187 kts 132°
2026-05-05 22:43 12.52687 -69.93252 306 ft 182 kts 120°
2026-05-05 22:43 12.51603 -69.92538 293 ft 186 kts 138°
2026-05-05 22:43 12.50710 -69.91613 312 ft 178 kts 128°
2026-05-05 22:43 12.49899 -69.90653 351 ft 177 kts 123°
2026-05-05 22:44 12.49068 -69.89747 390 ft 176 kts 130°
2026-05-05 22:44 12.48230 -69.88805 391 ft 177 kts 126°
2026-05-05 22:44 12.47097 -69.88216 394 ft 190 kts 160°
2026-05-05 22:44 12.45811 -69.87905 489 ft 188 kts 158°
2026-05-05 22:45 12.44608 -69.87450 465 ft 187 kts 148°
2026-05-05 22:45 12.43354 -69.86987 433 ft 192 kts 157°
2026-05-05 22:45 12.42057 -69.86649 391 ft 190 kts 161°
2026-05-05 22:45 12.40786 -69.86359 387 ft 186 kts 161°
2026-05-05 22:46 12.39521 -69.86096 431 ft 185 kts 161°
2026-05-05 22:46 12.38238 -69.85840 432 ft 191 kts 159°
2026-05-05 22:46 12.37094 -69.85279 390 ft 177 kts 129°
2026-05-05 22:46 12.36602 -69.84208 409 ft 164 kts 99°
2026-05-05 22:47 12.36367 -69.83081 435 ft 163 kts 98°
2026-05-05 22:47 12.36083 -69.81943 441 ft 165 kts 99°
2026-05-05 22:47 12.35796 -69.80804 420 ft 167 kts 99°
2026-05-05 22:47 12.35505 -69.79663 408 ft 166 kts 100°
2026-05-05 22:48 12.35228 -69.78519 406 ft 165 kts 98°
2026-05-05 22:48 12.34933 -69.77361 405 ft 167 kts 99°
2026-05-05 22:48 12.34650 -69.76208 405 ft 167 kts 100°
2026-05-05 22:48 12.34404 -69.75054 414 ft 168 kts 99°
2026-05-05 22:49 12.34160 -69.73870 430 ft 175 kts 99°
2026-05-05 22:49 12.33916 -69.72633 426 ft 179 kts 99°
2026-05-05 22:49 12.33676 -69.71366 430 ft 181 kts 97°
2026-05-05 22:49 12.33392 -69.70101 421 ft 184 kts 99°
2026-05-05 22:50 12.33082 -69.68832 418 ft 182 kts 99°
2026-05-05 22:50 12.32785 -69.67597 410 ft 176 kts 99°
2026-05-05 22:50 12.32491 -69.66393 403 ft 173 kts 99°
2026-05-05 22:50 12.32212 -69.65203 406 ft 172 kts 101°
2026-05-05 22:51 12.31964 -69.64009 411 ft 172 kts 100°
2026-05-05 22:51 12.31738 -69.62810 453 ft 172 kts 99°
2026-05-05 22:51 12.31505 -69.61619 415 ft 174 kts 97°
2026-05-05 22:51 12.31220 -69.60407 405 ft 176 kts 99°
2026-05-05 22:52 12.30927 -69.59198 428 ft 176 kts 99°
2026-05-05 22:52 12.30641 -69.57974 404 ft 177 kts 99°
2026-05-05 22:52 12.30373 -69.56734 401 ft 177 kts 100°
2026-05-05 22:52 12.30141 -69.55517 443 ft 174 kts 99°
2026-05-05 22:53 12.29914 -69.54297 425 ft 174 kts 99°
2026-05-05 22:53 12.29682 -69.53079 444 ft 175 kts 99°
2026-05-05 22:53 12.29448 -69.51862 404 ft 176 kts 98°
2026-05-05 22:53 12.29187 -69.50629 374 ft 176 kts 100°
2026-05-05 22:54 12.28939 -69.49414 398 ft 174 kts 99°
2026-05-05 22:54 12.28691 -69.48196 415 ft 173 kts 98°
2026-05-05 22:54 12.28436 -69.47002 422 ft 173 kts 99°
2026-05-05 22:54 12.28182 -69.45799 439 ft 173 kts 99°
2026-05-05 22:55 12.27955 -69.44597 432 ft 173 kts 98°
2026-05-05 22:55 12.27706 -69.43381 409 ft 173 kts 99°
2026-05-05 22:55 12.27462 -69.42186 422 ft 172 kts 99°
2026-05-05 22:55 12.27234 -69.40987 422 ft 171 kts 98°
2026-05-05 22:56 12.26981 -69.39785 429 ft 174 kts 99°
2026-05-05 22:56 12.26720 -69.38591 417 ft 174 kts 99°
2026-05-05 22:56 12.26478 -69.37375 420 ft 171 kts 98°
2026-05-05 22:56 12.26234 -69.36196 404 ft 171 kts 100°
2026-05-05 22:57 12.26009 -69.35015 394 ft 167 kts 98°
2026-05-05 22:57 12.25787 -69.33848 412 ft 165 kts 98°
2026-05-05 22:57 12.25532 -69.32699 426 ft 167 kts 99°
2026-05-05 22:57 12.25292 -69.31551 438 ft 170 kts 99°
2026-05-05 22:58 12.25064 -69.30319 472 ft 178 kts 98°
2026-05-05 22:58 12.24804 -69.29086 563 ft 177 kts 103°
2026-05-05 22:58 12.24516 -69.27898 743 ft 167 kts 101°
2026-05-05 22:58 12.24286 -69.26736 789 ft 168 kts 99°
2026-05-05 22:59 12.24106 -69.25556 833 ft 172 kts 99°
2026-05-05 22:59 12.23621 -69.24417 877 ft 173 kts 112°
2026-05-05 22:59 12.23416 -69.23221 816 ft 177 kts 86°
2026-05-05 22:59 12.23781 -69.22000 907 ft 180 kts 67°
2026-05-05 23:00 12.25182 -69.19839 976 ft 185 kts 54°
2026-05-05 23:00 12.26097 -69.18877 948 ft 190 kts 48°
2026-05-05 23:00 12.27104 -69.17987 973 ft 191 kts 45°
2026-05-05 23:01 12.28151 -69.17168 897 ft 193 kts 41°
2026-05-05 23:01 12.29231 -69.16344 895 ft 194 kts 43°
2026-05-05 23:01 12.30469 -69.15730 856 ft 202 kts 27°
2026-05-05 23:01 12.31859 -69.15418 698 ft 211 kts 12°
2026-05-05 23:02 12.33355 -69.15515 656 ft 216 kts
2026-05-05 23:02 12.34850 -69.15642 596 ft 211 kts
2026-05-05 23:02 12.36278 -69.15697 631 ft 198 kts
2026-05-05 23:02 12.37605 -69.16028 493 ft 205 kts 342°
2026-05-05 23:03 12.38865 -69.15909 398 ft 178 kts 42°
2026-05-05 23:03 12.39221 -69.14870 411 ft 164 kts 121°
2026-05-05 23:03 12.38504 -69.13929 410 ft 173 kts 122°
2026-05-05 23:03 12.37854 -69.12924 530 ft 167 kts 121°
2026-05-05 23:04 12.37176 -69.11936 586 ft 167 kts 123°
2026-05-05 23:04 12.36605 -69.10909 592 ft 168 kts 109°
2026-05-05 23:04 12.36172 -69.09810 625 ft 169 kts 110°
2026-05-05 23:04 12.35859 -69.08637 565 ft 171 kts 96°
2026-05-05 23:05 12.35535 -69.07484 583 ft 175 kts 120°
2026-05-05 23:05 12.34505 -69.06719 485 ft 185 kts 145°
2026-05-05 23:05 12.33420 -69.06080 605 ft 179 kts 145°
2026-05-05 23:05 12.32307 -69.05500 554 ft 181 kts 147°
2026-05-05 23:06 12.31068 -69.05223 480 ft 192 kts 178°
2026-05-05 23:06 12.29710 -69.05342 270 ft 196 kts 164°
2026-05-05 23:06 12.28381 -69.05119 342 ft 190 kts 165°
2026-05-05 23:06 12.27123 -69.04674 286 ft 189 kts 146°
2026-05-05 23:07 12.26031 -69.03991 333 ft 181 kts 147°
2026-05-05 23:07 12.24953 -69.03311 294 ft 180 kts 137°
2026-05-05 23:07 12.23907 -69.02635 360 ft 177 kts 141°
2026-05-05 23:07 12.23139 -69.01657 428 ft 177 kts 123°
2026-05-05 23:08 12.22372 -69.00671 529 ft 178 kts 126°
2026-05-05 23:08 12.21582 -68.99713 764 ft 161 kts 125°
2026-05-05 23:08 12.20901 -68.98927 774 ft 146 kts 128°
2026-05-05 23:08 12.20197 -68.98354 893 ft 106 kts 142°
2026-05-05 23:09 12.19564 -68.97995 578 ft 107 kts 137°
2026-05-05 23:09 12.19166 -68.97390 298 ft 102 kts 109°
2026-05-05 23:09 12.19034 -68.96710 123 ft 92 kts 101°
2026-05-05 23:09 12.18928 -68.96159 42 ft 60 kts 102°
2026-05-05 23:10 12.18871 -68.95933 40 ft 8 kts 147°
2026-05-05 23:10 12.18840 -68.95926 40 ft 5 kts 185°
2026-05-05 23:10 12.18735 -68.95947 39 ft 24 kts 207°
2026-05-05 23:10 12.18718 -68.96017 39 ft 10 kts 284°
2026-05-05 23:11 12.18731 -68.96073 40 ft 16 kts 282°
2026-05-05 23:11 12.18759 -68.96206 39 ft 19 kts 282°
2026-05-05 23:11 12.18783 -68.96323 38 ft 15 kts 281°
2026-05-05 23:11 12.18788 -68.96395 40 ft 1 kts 210°
2026-05-05 23:12 12.18777 -68.96399 38 ft 6 kts 197°
2026-05-05 23:12 12.18742 -68.96406 40 ft 2 kts 191°
2026-05-05 23:12 12.18721 -68.96410 39 ft 12 kts 184°
2026-05-05 23:12 12.18673 -68.96374 41 ft 6 kts 109°
2026-05-05 23:13 12.18655 -68.96352 41 ft 4 kts 146°
2026-05-05 23:13 12.18636 -68.96337 41 ft 1 kts 113°
2026-05-05 23:13 12.18632 -68.96319 41 ft 0 kts 104°
2026-05-05 23:17 12.18615 -68.96281 37 ft 0 kts 115°